Location: Asheville, NC
(35.6000°N, 82.5500°W)
Time: 00:29:50
(UTC-04:00)

Vanguard 1 Rocket - Pass Details

Date: 17 March 2018
Orbit: 653 x 4224 km, 34.3° (Epoch: 24 June)

Event Time Altitude Azimuth Distance (km) Brightness Sun altitude
Rises 00:55:24 0° 283° (WNW) 5,737 11.7 -54.3°
Reaches altitude 10° 00:58:46 10° 277° (W) 5,130 11.3 -54.5°
Enters shadow 01:04:52 29° 259° (W) 4,393 10.7 -54.9°
Maximum altitude 01:13:58 44° 212° (SSW) 4,364 - -55.3°
Drops below altitude 10° 01:36:55 10° 149° (SSE) 7,420 - -55.8°
Sets 01:43:18 0° 144° (SE) 8,396 - -55.7°
